Vertical_Velocity
-5 -5 -0 -4 -2 -4 -2 1 1 -2 -3 -3 -2 -1 -1 0 -0 -0 -2 -2 0 -2 -2 -0 0 -1 -0
-1 -1 -2 0 -1 -4 -1 -2 -1 3 -1 -2 -2 -2 0 -2 -1 -1 -0 -2 -1 -1 -1 -2 2 -2 0
-1 -2 -3 -0 2 2 -1 1 -1 -2 0 -2 -2 -3 -5 -1 -0 0 1 -1 1 3 1 -0 -4 -4 -1
-2 0 -2 3 -6 -8 -2 -3 -3 -2 -2 -1 0 1 1 -5 -4 -0 5 4 -3 -3 2 -0 1 2 -1
-0 -3 -1 0 -2 1 -10 -6 -3 2 -0 -1 -2 2 4 -2 -4 -0 -1 0 4 -0 -1 5 3 3 5
-3 -4 3 -2 4 -0 -5 -3 -13 12 -7 -2 -6 -2 3 2 4 2 -2 4 -0 3 -1 -2 2 4 0
-4 2 -7 -1 -1 0 2 -1 0 9 -10 -15 2 -2 2 4 2 1 0 -1 2 1 2 0 -2 -1 1
-0 -2 -3 -2 -5 -1 -2 -7 -5 -0 8 -35 15 -9 7 1 4 -0 1 2 1 2 1 1 2 -0 1
0 -5 -5 -5 0 -0 -1 -6 -11 -8 6 -6 4 -8 6 6 3 -2 -1 -1 2 2 2 2 1 1 0
-2 -3 1 -1 1 7 -1 -7 -3 -17 5 -5 1 8 -10 -2 6 9 3 2 3 4 3 4 2 4 1
-4 -3 -0 1 3 10 5 -0 -9 -11 6 2 -2 1 3 -7 1 4 6 7 3 4 5 6 3 2 3
-4 -3 -4 -2 0 -1 3 6 0 -12 2 7 -8 3 1 13 0 5 6 0 6 4 -1 6 5 5 4
-3 -1 -0 -2 -2 -0 2 0 -4 -5 -2 3 -4 2 1 3 13 2 0 -3 4 2 2 2 4 4 5
-3 -2 -2 0 -1 2 -5 3 -6 -2 7 5 -5 -2 -0 2 8 10 -1 -1 6 6 1 2 3 4 3
-1 -3 -1 -2 1 2 -1 -1 -6 -4 -1 3 6 26 14 6 22 26 6 16 2 6 0 3 -1 -3 -1
1 -1 -2 -2 0 4 0 -1 -3 -0 -2 -2 -2 -2 6 3 6 2 6 10 9 4 0 -6 -4 -1 -1
-0 0 -1 -0 -1 -0 1 -0 -0 -2 -1 1 -2 -2 -4 -4 9 2 0 5 -4 -3 2 0 0 3 -1
Height
3047 3048 3045 3043 3042 3040 3039 3037 3036 3033 3031 3031 3029 3027 3026 3025 3024 3024 3024 3023 3024 3025 3025 3025 3025 3026 3027
3033 3035 3034 3034 3031 3029 3029 3027 3025 3024 3021 3021 3021 3020 3019 3018 3017 3016 3016 3015 3015 3015 3016 3017 3018 3020 3020
3015 3018 3019 3021 3018 3016 3016 3015 3013 3012 3011 3011 3011 3011 3011 3009 3009 3008 3008 3008 3008 3009 3010 3011 3011 3012 3014
3004 3001 3000 3003 3002 3001 2999 2998 2997 2997 2997 2999 3000 2999 2999 3001 3000 2999 2999 3000 3000 3000 3002 3003 3004 3005 3006
2991 2987 2984 2984 2985 2985 2981 2982 2983 2984 2985 2986 2986 2986 2988 2988 2989 2989 2989 2990 2991 2992 2993 2995 2996 2997 2999
2976 2973 2971 2969 2968 2967 2965 2966 2965 2972 2969 2971 2972 2973 2976 2976 2976 2977 2978 2979 2980 2982 2983 2985 2987 2988 2990
2960 2958 2955 2954 2952 2951 2951 2950 2949 2950 2952 2953 2959 2958 2963 2963 2964 2965 2966 2968 2969 2971 2973 2975 2977 2979 2981
2948 2946 2943 2941 2940 2938 2936 2934 2935 2935 2935 2932 2940 2943 2948 2948 2950 2951 2954 2956 2958 2960 2962 2964 2967 2970 2972
2938 2936 2934 2931 2930 2924 2924 2922 2920 2921 2921 2919 2923 2923 2928 2931 2934 2936 2940 2944 2946 2948 2951 2954 2956 2959 2962
2927 2925 2924 2921 2920 2917 2914 2909 2909 2907 2910 2908 2909 2910 2910 2916 2919 2922 2924 2928 2932 2936 2939 2942 2945 2948 2952
2914 2914 2913 2911 2910 2907 2905 2902 2899 2897 2900 2896 2897 2899 2899 2901 2906 2909 2910 2914 2917 2921 2925 2929 2933 2937 2941
2905 2904 2902 2900 2899 2897 2895 2893 2890 2889 2889 2888 2886 2889 2890 2892 2893 2896 2899 2902 2905 2907 2911 2916 2920 2925 2929
2895 2893 2891 2889 2887 2886 2884 2883 2881 2881 2880 2879 2877 2879 2880 2881 2883 2884 2888 2891 2894 2896 2900 2904 2908 2913 2918
2885 2883 2881 2879 2878 2876 2874 2873 2872 2873 2872 2870 2868 2870 2870 2872 2873 2876 2879 2881 2884 2887 2889 2893 2897 2902 2907
2876 2874 2872 2870 2869 2868 2866 2865 2863 2863 2863 2863 2861 2861 2862 2863 2864 2868 2871 2872 2875 2877 2879 2883 2887 2891 2896
2868 2866 2864 2861 2860 2859 2858 2856 2856 2856 2855 2855 2854 2853 2854 2856 2858 2860 2863 2866 2868 2869 2872 2874 2878 2882 2885
2861 2859 2856 2854 2852 2851 2850 2848 2847 2847 2848 2848 2848 2848 2849 2850 2853 2855 2855 2856 2858 2861 2864 2866 2870 2873 2876